Regional Weather Roundup
Issued by NWS Northern Indiana

Home | Current Version | Previous Version | Graphics & Text | Print | Product List | Glossary On
Versions: 1 2 3 4 5 6 7 8 9 10 11 12 13 14 15 16 17 18 19 20 21 22 23 24 25 26 27 28 29 30 31 32 33 34 35 36 37 38 39 40 41 42 43 44 45 46 47 48 49 50
000
ASUS43 KIWX 271810
RWRIWX

KIWX WEATHER ROUNDUP
NATIONAL WEATHER SERVICE NORTHERN INDIANA
200 PM EDT FRI MAY 27 2016

NOTE: "FAIR" INDICATES FEW OR NO CLOUDS BELOW 12,000 FEET WITH NO
SIGNIFICANT WEATHER AND/OR OBSTRUCTIONS TO VISIBILITY.

* THESE STATIONS ARE NOT UNDER NWS QUALITY CONTROL. THEY ALSO MAY NOT
  REPORT WEATHER SUCH AS PRECIPITATION OR FOG.

INZ001>027-271900-
NORTHERN INDIANA

CITY           SKY/WX    TMP DP  RH WIND       PRES   REMARKS
GARY*          PTSUNNY   82  72  69 S6        29.92S
VALPARAISO     CLOUDY    80  64  58 S14G22    29.94S
6HR MIN TEMP:  67; 6HR MAX TEMP:  81;

MICHIGAN CITY* CLOUDY    79  64  61 S12       29.93F
LAPORTE*       CLOUDY    81  64  56 S12       29.95S
6HR MIN TEMP:  68; 6HR MAX TEMP:  82;

KNOX*            N/A     79  52  38 S13         N/A
SOUTH BEND     CLOUDY    78  65  63 S13       29.96F
6HR MIN TEMP:  67; 6HR MAX TEMP:  79; 6HR PCP: TRACE;

ELKHART*       MOSUNNY   81  68  65 SW9       29.97S
GOSHEN         CLOUDY    79  63  57 S10       29.97F
6HR MIN TEMP:  67; 6HR MAX TEMP:  81; 6HR PCP: TRACE;

MONTICELLO*    MOSUNNY   83  58  42 S9G17     29.93F
6HR MIN TEMP:  67; 6HR MAX TEMP:  83;

LOGANSPORT*    SUNNY     82  61  47 S14       29.96F
ROCHESTER*     CLOUDY    82  63  51 S7G16     29.97F
WARSAW*        CLOUDY    79  63  57 S8        29.97F
ANGOLA*          N/A     79  72  78 S7        29.99F
FORT WAYNE     PTSUNNY   84  61  45 SW16      29.99F
6HR MIN TEMP:  67; 6HR MAX TEMP:  84; 6HR PCP: TRACE;

HUNTINGTON*    MOSUNNY   83  61  46 S10       29.98F
PERU/GRISSOM   SUNNY     84  63  48 S14       29.96F
6HR MIN TEMP:  67; 6HR MAX TEMP:  84;

MARION*        SUNNY     85  60  42 SW13G22   29.98F
6HR MIN TEMP:  -1; 6HR MAX TEMP:  85;


$$
INZ028>050-271900-
CENTRAL INDIANA

CITY           SKY/WX    TMP DP  RH WIND       PRES   REMARKS
LAFAYETTE      PTSUNNY   81  64  56 S10G25    29.93F
6HR MIN TEMP:  66; 6HR MAX TEMP:  82;

KOKOMO*        MOSUNNY   84  63  48 SW15G24   29.96F
6HR MIN TEMP:  66; 6HR MAX TEMP:  84;

MUNCIE*        SUNNY     86  58  38 S16       29.99F
6HR MIN TEMP:  68; 6HR MAX TEMP:  86;

INDIANAPOLIS   CLOUDY    80  65  59 S13       29.97F
6HR MIN TEMP:  66; 6HR MAX TEMP:  82;


$$
MIZ043>046-050>051-056>058-064>065-071>073-077>080-271900-
SOUTHWEST LOWER MICHIGAN

CITY           SKY/WX    TMP DP  RH WIND       PRES   REMARKS
BATTLE CREEK   CLOUDY    78  64  61 S12       29.98S
6HR MIN TEMP:  66; 6HR MAX TEMP:  79;

BENTON HARBOR  CLOUDY    78  65  63 S8        29.94F
6HR MIN TEMP:  68; 6HR MAX TEMP:  78;

COLDWATER*     CLOUDY    76  63  64 S6        29.99S
6HR MIN TEMP:  67; 6HR MAX TEMP:  78;

HILLSDALE*     CLOUDY    77  59  53 S6        30.01S
6HR MIN TEMP:  66; 6HR MAX TEMP:  77;

HOLLAND        LGT RAIN  73  65  75 W9        29.95R
6HR MIN TEMP:  67; 6HR MAX TEMP:  80; 6HR PCP: TRACE;

GRAND RAPIDS   LGT RAIN  82  66  58 S18G26    29.95S
6HR MIN TEMP:  69; 6HR MAX TEMP:  85; 6HR PCP: TRACE;

KALAMAZOO      CLOUDY    79  63  57 S6        29.97S
6HR MIN TEMP:  68; 6HR MAX TEMP:  80;

STURGIS*       PTSUNNY   80  64  56 SW14G22   29.97F
6HR MIN TEMP:  67; 6HR MAX TEMP:  80;

THREE RIVERS*  FAIR      79  64  59 SW8       29.98S
6HR MIN TEMP:  67; 6HR MAX TEMP:  80;


$$
OHZ001>008-015>018-024>025-271900-
NORTHWEST OHIO

CITY           SKY/WX    TMP DP  RH WIND       PRES   REMARKS
WAUSEON*         N/A     81  79  94 S9G15     30.00S
DEFIANCE       CLOUDY    81  63  54 S9        30.00S
6HR MIN TEMP:  67; 6HR MAX TEMP:  81; 6HR PCP: TRACE;

FINDLAY        CLOUDY    84  61  45 S9        30.00F
6HR MIN TEMP:  68; 6HR MAX TEMP:  84;

TOLEDO EXPRESS CLOUDY    82  64  54 SW8       30.00S
6HR MIN TEMP:  66; 6HR MAX TEMP:  82;

TOLEDO METCALF MOSUNNY   85  64  49 SW7       30.00F
6HR MIN TEMP:  67; 6HR MAX TEMP:  85;

LIMA           MOSUNNY   84  61  45 SW10G20   30.01F
6HR MIN TEMP:  65; 6HR MAX TEMP:  84;


$$
AND FOR LAKE MICHIGAN COASTAL AND OPEN LAKE BUOY OBSERVATIONS

STATION/POSITION TEMP    WIND        PRES    VSBY  WAVE
                 AIR SEA DIR/SP/G                  HT/PER
                 (F)     (DEG/KT/KT) (MB)    (MI)  (FT/S)
CALUMET HARBOR    78     180/  9/ 15 1012.2F
MICHIGAN CITY     76     170/ 12/ 15   N/A
BURNS HARBOR      80     190/ 11/ 19 1013.2F
SAINT JOSEPH      78     190/  2/  7 1014.2F
SOUTH LAKE BUOY   56 50  140/ 10/ 12 1012.9F         1/ 3
4 MI NW BRIDGMAN  68 63   20/  2/  4   N/A           1
MICHIGAN CITY     69 60  210/  6/  8   N/A           1

$$
&&



USA.gov is the U.S. government's official web portal to all federal, state and local government web resources and services.